User: anonymous   Login
Location: La Brionne
(46.1728°N, 1.7849°E)
Time: 05:46:08
(UTC+00:00)
Language:

FENGYUN 1C DEB - Orbit

View from above orbital plane
View from above orbital plane
View from above satellite
View from above satellite

Ground track
Ground track

The orbit data is extracted from the following two-line orbital elements,

1 30048U 99025NZ  24197.50710802  .00000309  00000-0  29722-3 0  9993
2 30048  98.7290  98.5261 0187619 193.5377 342.6397 13.79301941880211
Epoch (UTC): 15 July 2024 12:10:14
Eccentricity: 0.0187619
inclination: 98.7290°
perigee height: 828 km
apogee height: 1104 km
right ascension of ascending node: 98.5261°
argument of perigee: 193.5377°
revolutions per day: 13.79301941
mean anomaly at epoch: 342.6397°
orbit number at epoch: 88021

The dashed part of the orbit path shows where the satellite is in the earth's shadow,  

DLR